map of DAD home
DAD - Airport
Location
City:  Da Nang, Vietnam
Name:Da Nang International Airport
ICAO:VVDN
IATA:DAD

Details
Type:Airport (Aerodrome, Airfield)
Use:Public/Civil, Military, International (customs port of entry)
Latitude:1602'38"N (16.043917)
Longitude:10811'58"E (108.199370)
Datum:WGS 1984
Elevation:33 ft (10 m)
Variation:1.16W (WMM2015 magnetic declination)
-0.04 annual change
Runways:2
Longest:10000 × 148 ft (3048 × 45 m), paved

Time
Time Zone:UTC+7
Local Time:

Weather
METAR:VVDN 280300Z VRB02KT 9999 FEW015 34/25 Q1009 NOSIG
TAF:VVDN 272300Z 2800/2824 20005KT 9999 FEW017
BECMG 2803/2804 12010KT
TEMPO 2809/2812 TS FEW015 FEW017CB SCT060

Related Locations
Nearby:
Farthest:SPVR: 12447 mi / 20031 km
Vitor, ARE, PE

Find:

   beyond  
but within

Other Information
Maps:
NOTAMs:
Links:
Sources:

  
flag of Vietnam   

Airport Diagram

Airport diagram for DAD

Larger airport diagram (OBSOLETE) from NGA

Sectional Chart

Flight Planning
at skyvector.com

Satellite Image

Google Maps Satellite view

 

Copyright © 2004-2017 Karl L. Swartz. All rights reserved.
The Great Circle Mapper name and logo are trademarks of the Great Circle Mapper.
All other trademarks mentioned herein belong to their respective owners.
Please see credits for attibutions and further copyright information.

  Follow gcmap on Facebook Follow gcmap on Twitter Follow gcmap on Google+ GCmap on LinkedIn

hCard Microformat

Geo Microformat